User: anonymous   Login
Location: Boca do Mato
(22.9085°S, 43.2930°W)
Time: 20:48:04
(UTC+00:00)
Language:

SJ 16-02 - Orbit

View from above orbital plane
View from above orbital plane
View from above satellite
View from above satellite

Ground track
Ground track

The orbit data is extracted from the following two-line orbital elements,

1 41634U 16043A   20270.08338273  .00000014  00000-0  47561-5 0  9990
2 41634  75.0016 244.5364 0006325  50.4999 309.6715 14.85713047230184
Epoch (UTC): 26 September 2020 02:00:04
Eccentricity: 0.0006325
inclination: 75.0016°
perigee height: 607 km
apogee height: 616 km
right ascension of ascending node: 244.5364°
argument of perigee: 50.4999°
revolutions per day: 14.85713047
mean anomaly at epoch: 309.6715°
orbit number at epoch: 23018

The dashed part of the orbit path shows where the satellite is in the earth's shadow,  

DLR